Overview Statistics Trail Chart Weather Telemetry Raw packets
 

This is the latest recevied weather packets stored in our database for station/object N0QV. If no packets are shown the sender has not sent any weather packets the latest 10 day(s).

<< 85 86 87 88 89 90 91 >>
Time Temp. Humidity Pressure Rain* Wind** Luminosity Snow
1788048447 26.11° C 74% 1009 hPa 0 mm - 26 W/m² -
1788048146 26.11° C 74% 1008.9 hPa 0 mm - 32 W/m² -
1788047843 26.11° C 74% 1008.6 hPa 0 mm - 31 W/m² -
1788047543 26.11° C 74% 1008.8 hPa 0 mm - 32 W/m² -
1788047238 26.11° C 73% 1008.9 hPa 0 mm - 34 W/m² -
1788046938 26.67° C 72% 1008.7 hPa 0 mm - 35 W/m² -
1788046637 26.67° C 72% 1008.7 hPa 0 mm - 33 W/m² -
1788046332 26.67° C 71% 1008.8 hPa 0 mm - 32 W/m² -
1788046030 26.67° C 70% 1008.8 hPa 0 mm - 36 W/m² -
1788045725 26.67° C 70% 1008.8 hPa 0 mm - 49 W/m² -
1788045420 26.67° C 70% 1009.1 hPa 0 mm - 52 W/m² -
1788045115 26.67° C 70% 1009.2 hPa 0 mm - 55 W/m² -
1788044815 26.67° C 69% 1009.1 hPa 0 mm - 59 W/m² -
1788044510 26.67° C 69% 1008.8 hPa 0 mm - 72 W/m² -
1788044210 27.22° C 68% 1009.2 hPa 0 mm - 148 W/m² -
1788043905 27.22° C 68% 1009.1 hPa 0 mm - 197 W/m² -
1788043601 27.22° C 67% 1009.2 hPa 0 mm - 228 W/m² -
1788043301 27.78° C 66% 1009.3 hPa 0 mm - 242 W/m² -
1788042996 27.78° C 66% 1009 hPa 0 mm - 249 W/m² -
1788042691 27.78° C 66% 1008.9 hPa 0 mm - 253 W/m² -
1788042390 27.78° C 66% 1009 hPa 0 mm - 258 W/m² -
1788042085 27.22° C 66% 1008.8 hPa 0 mm - 270 W/m² -
1788041780 27.22° C 65% 1009.1 hPa 0 mm - 319 W/m² -
1788041475 27.22° C 67% 1009 hPa 0 mm - 299 W/m² -
1788041170 27.78° C 65% 1008.9 hPa 0 mm - 288 W/m² -

* Rain latest hour (hover to see other rain measurements)
** Current wind speed in m/s (hover to see current wind gust speed)